ORBCOMM FM109 (40086 NORAD) Tracking and Keplerian Element Data

This shows tracking and keplerian element data for the satellite.

Feedback or suggestion? Click here.




ElementValue
Catalog40086
NameORBCOMM FM109
Epoch Orbit60819
Epoch Day354.05705981
Epoch Year2025
RAAN218.2381
Inclination47.002
Eccentricity0.0001251
Argument of Perigee121.3772
Mean Anonmoly238.7236
Mean Motion14.58554345
Decay Rate2.76E-06
L11 40086U 14040A 25354.05705981 .00000276 00000+0 95135-4 0 9992
L22 40086 47.0020 218.2381 0001251 121.3772 238.7236 14.58554345608199



Live tracking and technical data element details for ORBCOMM FM109 (NORAD 40086). ORBCOMM FM109 can be tracked NOW for your location showing map with azimuth and elevation plus other details from your city location.







IsCatalogInMostPopularTable: catalog: 40086, numindb: 560
Update: records affected: 1



GetName: 40086 ORBCOMM FM109

Hit Count: updated at: Tue, 20 Jan 2026 19:29:48 GMT